Regional Weather Roundup
Issued by NWS

Home | Current Version | Previous Version | Graphics & Text | Print | Product List | Glossary On
Versions: 1 2 3 4 5 6 7 8 9 10 11 12 13 14 15 16 17 18 19 20 21 22 23 24 25 26 27 28 29 30 31 32 33 34 35 36 37 38 39 40 41 42 43 44 45 46 47 48 49 50
000
ASUS43 KOAX 250802
RWRNE

WEATHER ROUNDUP FOR NEBRASKA
NATIONAL WEATHER SERVICE OMAHA NE
200 AM CST SUN JAN 25 2015

NOTES: SATELLITE DATA IS BEING USED TO AUGMENT CLOUD COVER ABOVE
       12000 FEET.
       "FAIR" INDICATES FEW OR NO CLOUDS BELOW 12,000 FEET WITH NO
       SIGNIFICANT WEATHER AND/OR OBSTRUCTIONS TO VISIBILITY.

  * THESE STATIONS DO NOT REPORT WEATHER SUCH AS RAIN...SNOW OR FOG.

NEZ001>004-019>022-054>056-250900-
NEBRASKA PANHANDLE

CITY           SKY/WX    TMP DP  RH WIND       PRES   REMARKS
SCOTTSBLUFF    PTCLDY    38  27  64 NW21G32   30.06S WCI  28
ALLIANCE       CLEAR     35  25  66 NW22G29   30.01R WCI  23
CHADRON        CLEAR     34  27  75 W20       30.03S WCI  23
SIDNEY         PTCLDY    37  25  61 NW18G29   30.07R WCI  27
$$

NEZ057>060-069>072-079>082-250900-
SOUTHWEST NEBRASKA

CITY           SKY/WX    TMP DP  RH WIND       PRES   REMARKS
NORTH PLATTE   CLEAR     35  29  78 NW14      29.93R WCI  26
IMPERIAL       CLEAR     38  27  64 NW22G30   30.00R WCI  27
LEXINGTON      PTCLDY    43  31  62 NW29G37   29.88R
MCCOOK         CLEAR     41  28  60 NW23G32   29.94R
$$

NEZ005>010-023>029-035>040-094-250900-
NORTH CENTRAL NEBRASKA

CITY           SKY/WX    TMP DP  RH WIND       PRES   REMARKS
VALENTINE      PTCLDY    38  30  73 NW21G32   29.89R WCI  28
AINSWORTH      CLOUDY    38  31  75 NW26G38   29.87R WCI  27
BROKEN BOW     CLOUDY    43  31  62 NW38G46   29.84R
ORD            CLOUDY    40  33  76 NW31G40   29.80R WCI  28
$$

NEZ041-046>049-061>064-073>077-083>087-250900-
SOUTH CENTRAL NEBRASKA

CITY           SKY/WX    TMP DP  RH WIND       PRES   REMARKS
GRAND ISLAND   CLOUDY    41  35  79 NW30G43   29.79R
AURORA         CLOUDY    41  33  73 NW26G39   29.77R
HASTINGS       CLOUDY    42  35  76 NW29G38   29.78R
KEARNEY *      CLOUDY    45  30  57 NW31G49   29.81R
$$

NEZ011>018-030>034-042>045-250900-
NORTHEAST NEBRASKA

CITY           SKY/WX    TMP DP  RH WIND       PRES   REMARKS
NORFOLK        LGT SNOW  35  32  88 NW24G38   29.72R FOG     WCI  23
ALBION         CLOUDY    38  32  80 N17G31    29.75R WCI  28
COLUMBUS *     CLOUDY    39  30  70 NW22G28   29.73R WCI  29
FREMONT        CLOUDY    41  36  81 NW31G37   29.66R
TEKAMAH        LGT RAIN  41  37  86 NW23      29.63R
$$

NEZ050>053-065>068-078-088>093-250900-
SOUTHEAST NEBRASKA

CITY           SKY/WX    TMP DP  RH WIND       PRES   REMARKS
LINCOLN        CLOUDY    43  36  76 NW28G40   29.69R
OMAHA EPPLEY   LGT RAIN  41  38  89 NW18      29.61S
FALLS CITY     CLOUDY    45  39  79 W13       29.63S
NEBRASKA CITY  PTCLDY    41  33  74 NW12      29.63R
$$

NEZ044-045-051>053-067-250900-
OMAHA AREA

CITY           SKY/WX    TMP DP  RH WIND       PRES   REMARKS
OMAHA EPPLEY   LGT RAIN  41  38  89 NW18      29.61S
FREMONT        CLOUDY    41  36  81 NW31G37   29.66R
OFFUTT AFB     MOCLDY    43  37  81 NW21G28   29.61S
WAHOO          CLOUDY    42  34  73 NW25G36   29.65S
$$



USA.gov is the U.S. government's official web portal to all federal, state and local government web resources and services.